Weather History for Melbourne, FL

Change the Weather History Date:

Saturday, November 2, 2013

  Actual Average Record
Temperature  
Mean Temperature 76 °F 72 °F  
Max Temperature 86 °F 81 °F 88 °F (1951)
Min Temperature 65 °F 63 °F 45 °F (1993)
Degree Days  
Heating Degree Days 0 0  
Month to date heating degree days 0 0  
Since 1 July heating degree days 0 4  
Cooling Degree Days 11 7  
Month to date cooling degree days 27 15  
Year to date cooling degree days 3355 3052  
Growing Degree Days 25 (Base 50)    
Moisture  
Dew Point 66 °F    
Average Humidity 74    
Maximum Humidity 100    
Minimum Humidity 48    
Precipitation  
Precipitation 0.00 in 0.12 in 1.64 in (2008)
Month to date precipitation 0.00 0.23  
Year to date precipitation 35.99 46.78  
Sea Level Pressure  
Sea Level Pressure 29.89 in    
Wind  
Wind Speed 9 mph (SW)    
Max Wind Speed 29 mph    
Max Gust Speed 36 mph    
Visibility 8 miles    
Events      
T = Trace of Precipitation, MM = Missing Value Source: NWS Daily Summary

Daily Weather History Graph

Daily Weather History Graph

Search for Another Location

Airport:

Trip Planner

Search our weather history database for the weather conditions in past years. The results will help you decide how hot, cold, wet, or windy it might be!

Date:

Astronomy

Nov. 02, 2013 Rise Set
Actual Time 7:34 AM EDT 6:37 PM EDT
Civil Twilight 7:10 AM EDT 7:01 PM EDT
Nautical Twilight 6:42 AM EDT 7:29 PM EDT
Astronomical Twilight 6:15 AM EDT 7:56 PM EDT
Moon 6:34 AM EDT (11/2) 6:05 PM EDT (11/2)
Length of Visible Light 11h 50m
Length of Day
11h 02m
Waning Crescent, 1% of the Moon is Illuminated
Nov 2
Waning Crescent
Nov 3
New
Nov 10
First Quarter
Nov 17
Full
Nov 25
Last Quarter

Hourly Weather History & Observations

Time (EDT) Temp. Heat Index Dew Point Humidity Pressure Visibility Wind Dir Wind Speed Gust Speed Precip Events Conditions
12:53 AM 72.0 °F - 66.0 °F 81% 29.92 in 10.0 mi SSW 4.6 mph - N/A   Clear
1:53 AM 71.1 °F - 66.9 °F 87% 29.91 in 10.0 mi SSW 5.8 mph - N/A   Clear
2:53 AM 70.0 °F - 66.9 °F 90% 29.89 in 10.0 mi SSW 6.9 mph - N/A   Clear
3:53 AM 71.1 °F - 69.1 °F 93% 29.86 in 10.0 mi South 5.8 mph - N/A   Clear
4:53 AM 70.0 °F - 69.1 °F 97% 29.86 in 10.0 mi SSW 6.9 mph - N/A   Clear
5:25 AM 69.8 °F - 69.8 °F 100% 29.85 in 10.0 mi SSW 5.8 mph - N/A   Scattered Clouds
5:36 AM 69.8 °F - 69.8 °F 100% 29.85 in 5.0 mi SSW 8.1 mph - N/A   Mostly Cloudy
5:45 AM 69.8 °F - 69.8 °F 100% 29.85 in 1.8 mi SSW 8.1 mph - N/A   Overcast
5:53 AM 70.0 °F - 69.1 °F 97% 29.85 in 1.2 mi SSW 5.8 mph - N/A   Overcast
6:17 AM 69.8 °F - 69.8 °F 100% 29.85 in 2.0 mi SSW 9.2 mph - N/A   Overcast
6:48 AM 69.8 °F - 69.8 °F 100% 29.87 in 1.5 mi SSW 8.1 mph - N/A   Overcast
6:53 AM 70.0 °F - 70.0 °F 100% 29.87 in 1.5 mi SSW 8.1 mph - N/A   Overcast
7:08 AM 69.8 °F - 69.8 °F 100% 29.87 in 3.0 mi SSW 6.9 mph - N/A   Overcast
7:53 AM 70.0 °F - 70.0 °F 100% 29.88 in 5.0 mi SSW 8.1 mph - N/A   Mostly Cloudy
8:44 AM 71.6 °F - 69.8 °F 94% 29.88 in 10.0 mi SSW 6.9 mph - N/A   Partly Cloudy
8:53 AM 72.0 °F - 70.0 °F 93% 29.88 in 10.0 mi South 8.1 mph - N/A   Partly Cloudy
9:53 AM 77.0 °F - 69.1 °F 76% 29.90 in 10.0 mi SSW 10.4 mph - N/A   Clear
10:53 AM 81.0 °F 83.3 °F 66.9 °F 62% 29.90 in 10.0 mi SSW 13.8 mph - N/A   Clear
11:53 AM 84.0 °F 84.9 °F 63.0 °F 49% 29.89 in 10.0 mi SSW 18.4 mph 25.3 mph N/A   Clear
12:53 PM 84.9 °F 85.9 °F 63.0 °F 48% 29.88 in 10.0 mi WSW 12.7 mph 24.2 mph N/A   Mostly Cloudy
1:24 PM 73.4 °F - 64.4 °F 73% 29.90 in 10.0 mi NW 24.2 mph 31.1 mph N/A   Overcast
1:53 PM 73.0 °F - 63.0 °F 71% 29.88 in 10.0 mi NNW 19.6 mph - N/A   Scattered Clouds
2:53 PM 73.0 °F - 62.1 °F 68% 29.86 in 10.0 mi WNW 12.7 mph - N/A   Partly Cloudy
3:53 PM 73.9 °F - 64.0 °F 71% 29.83 in 10.0 mi SW 3.5 mph - N/A   Overcast
4:53 PM 72.0 °F - 61.0 °F 68% 29.84 in 10.0 mi WNW 10.4 mph - N/A   Overcast
5:53 PM 70.0 °F - 61.0 °F 73% 29.86 in 10.0 mi NW 9.2 mph - N/A   Overcast
6:53 PM 68.0 °F - 62.1 °F 81% 29.88 in 10.0 mi WNW 9.2 mph - N/A   Mostly Cloudy
7:53 PM 66.9 °F - 62.1 °F 84% 29.94 in 10.0 mi WNW 9.2 mph - N/A   Mostly Cloudy
8:53 PM 66.9 °F - 62.1 °F 84% 29.96 in 10.0 mi NW 9.2 mph - N/A   Scattered Clouds
9:53 PM 66.9 °F - 61.0 °F 81% 29.96 in 10.0 mi NNW 6.9 mph - N/A   Partly Cloudy
10:53 PM 66.9 °F - 59.0 °F 76% 29.96 in 10.0 mi NW 6.9 mph - N/A   Clear
11:53 PM 66.9 °F - 57.9 °F 73% 29.97 in 10.0 mi NW 8.1 mph - N/A   Clear